[[{"header":{"parameterUnit":"m.s-1","parameterCategory":1,"la1":30.2991,"la2":30.254,"lo1":-89.0895,"lo2":-89.0444,"dy":0.0017,"dx":0.0017,"nx":28,"ny":28,"refTime":"2025-09-01T21:00:00:Z","depth":0,"parameterNumber":2,"parameterNumberName":"U-component_of_WINDS"},"data":[0,0,0,0,0,0,0,0,0,0,0,0,0,0,0,0,0,0,0,0,0,0,0,0,0,0,0,0,0,0,0,0,0,0,0,0,0,0,0,0,0,0,0,0,0,0,0,0,0,0,0,0,0,0,0,0,0,0,-1.2094,-1.2094,0,-1.2096,-1.2096,-1.2096,-1.2039,-1.2037,-1.2036,-1.2034,-1.2038,-1.204,-1.2042,0,0,0,0,0,0,0,0,0,0,0,0,0,-1.2041,-1.2042,-1.2094,-1.2094,-1.2094,-1.2096,-1.2096,-1.2096,-1.2039,-1.2037,-1.2035,-1.2033,-1.2038,-1.204,-1.2042,0,0,0,0,0,0,0,0,0,0,0,0,0,-1.2056,-1.2042,-1.2094,-1.2066,-1.2063,-1.2096,-1.2096,-1.2096,-1.2039,-1.2037,-1.2035,-1.2033,-1.2037,-1.204,-1.2042,-1.2103,0,0,-1.2049,-1.205,0,0,0,0,0,0,0,0,-1.2055,-1.2058,-1.207,-1.2068,-1.2065,-1.2065,-1.2079,-1.2099,-1.204,-1.2049,-1.2034,-1.2031,-1.2049,-1.205,-1.2056,-1.2103,-1.2103,-1.2049,-1.2051,-1.2052,-1.2052,0,0,0,0,0,0,0,-1.2054,-1.2057,-1.2095,-1.207,-1.2067,-1.2053,-1.2053,-1.2083,-1.2062,-1.2048,-1.2043,-1.2044,-1.2047,-1.2054,-1.2056,-1.2103,-1.2049,-1.2051,-1.2053,-1.2054,-1.22,-1.2203,0,0,0,0,0,0,-1.2057,-1.2057,-1.2095,-1.2095,-1.2054,-1.2056,-1.2055,-1.2067,-1.2061,-1.2058,-1.2046,-1.2042,-1.2051,-1.2053,-1.2056,-1.2127,-1.2052,-1.2054,-1.2055,-1.2198,-1.2201,-1.2204,0,0,0,0,0,0,-1.2056,-1.2061,-1.2095,-1.2075,-1.2078,-1.2059,-1.2073,-1.2069,-1.2075,-1.206,-1.2057,-1.2057,-1.2049,-1.2052,-1.2091,-1.2126,-1.2055,-1.2057,-1.2195,-1.2199,-1.2202,-1.227,0,0,0,0,0,0,-1.2054,-1.2061,-1.2083,-1.2076,-1.2079,-1.2131,-1.2075,-1.207,-1.2079,-1.2073,-1.2069,-1.2066,-1.2048,-1.2088,-1.2094,-1.2128,-1.2059,-1.2192,-1.2197,-1.2201,-1.2264,-1.2275,-1.2285,0,0,0,0,0,-1.2053,-1.2103,-1.2085,-1.209,-1.2107,-1.2133,-1.2135,-1.2112,-1.2082,-1.2105,-1.2095,-1.2067,-1.2121,-1.2093,-1.2098,-1.2134,-1.2189,-1.2195,-1.2201,-1.226,-1.2273,-1.2284,0,0,0,0,0,0,-1.2116,-1.2101,-1.2081,-1.213,-1.2133,-1.2123,-1.2151,-1.2127,-1.2138,-1.2132,-1.2104,-1.2103,-1.2147,-1.2144,-1.2113,-1.2192,-1.215,-1.2157,-1.2193,-1.2206,-1.2216,-1.2216,-1.2061,0,0,0,0,0,-1.2135,-1.2157,-1.2143,-1.2187,-1.219,-1.217,-1.218,-1.2162,-1.2164,-1.2165,-1.2159,-1.2162,-1.218,-1.2192,-1.2208,-1.2263,-1.2262,-1.229,-1.23,-1.2309,-1.2316,-1.2344,-1.2357,-1.2222,-1.2222,-1.2222,0,0,-1.2176,-1.2171,-1.2186,-1.22,-1.22,-1.2223,-1.2172,-1.2198,-1.2215,-1.2169,-1.2206,-1.2201,-1.2203,-1.225,-1.2271,-1.2249,-1.2352,-1.2316,-1.2323,-1.2325,-1.2351,-1.2364,-1.2376,-1.2226,-1.2225,-1.2224,0,0,-1.2263,-1.2261,-1.2297,-1.2298,-1.2298,-1.2285,-1.2294,-1.2287,-1.2282,-1.2318,-1.2284,-1.2303,-1.2335,-1.2337,-1.2343,-1.2429,-1.2403,-1.2435,-1.2489,-1.2517,-1.2528,-1.2537,-1.2568,-1.258,-1.2442,-1.2442,-1.2442,0,-1.2314,-1.2346,-1.232,-1.2348,-1.2355,-1.2314,-1.2351,-1.2353,-1.2359,-1.2365,-1.234,-1.2378,-1.2377,-1.2424,-1.2445,-1.2451,-1.246,-1.2436,-1.2528,-1.2537,-1.2545,-1.2575,-1.2587,-1.2446,-1.2445,-1.2445,-1.2444,0,-1.2409,-1.2432,-1.2462,-1.2468,-1.2478,-1.2511,-1.2489,-1.2503,-1.2484,-1.2473,-1.251,-1.2506,-1.252,-1.253,-1.2512,-1.2575,-1.2561,-1.2533,-1.249,-1.2563,-1.259,-1.2601,-1.2451,-1.245,-1.2449,-1.2448,0,0,-1.2537,-1.2526,-1.2538,-1.254,-1.2536,-1.2554,-1.2585,-1.2598,-1.261,-1.2615,-1.2641,-1.2667,-1.2641,-1.2647,-1.2629,-1.2654,-1.2722,-1.2622,-1.2622,-1.2641,-1.2792,-1.2814,-1.2827,-1.2704,-1.2706,-1.2708,-1.2792,0,-1.2621,-1.2673,-1.2649,-1.2703,-1.2724,-1.2685,-1.2712,-1.2713,-1.2703,-1.272,-1.2709,-1.2729,-1.2693,-1.2696,-1.2719,-1.2709,-1.2752,-1.2703,-1.2729,-1.273,-1.273,-1.2841,-1.2865,-1.2944,-1.2802,-1.2804,-1.2805,0,-1.2727,-1.2735,-1.2792,-1.2784,-1.2792,-1.2816,-1.2826,-1.2842,-1.2842,-1.2834,-1.284,-1.2816,-1.2846,-1.2802,-1.2843,-1.281,-1.2819,-1.2816,-1.2818,-1.2821,-1.2773,-1.2847,-1.2969,-1.2981,-1.2821,-1.282,-1.2819,0,-1.2815,-1.284,-1.2877,-1.288,-1.2872,-1.289,-1.2887,-1.2885,-1.2894,-1.2903,-1.2908,-1.292,-1.2927,-1.2938,-1.2917,-1.2887,-1.2961,-1.2916,-1.2955,-1.2956,-1.2974,-1.2973,-1.3099,-1.2978,-1.2978,-1.2978,-1.2977,0,-1.2912,-1.2948,-1.2916,-1.2939,-1.2979,-1.2951,-1.2991,-1.2984,-1.2982,-1.3003,-1.2969,-1.299,-1.2961,-1.2979,-1.2963,-1.3,-1.3003,-1.2997,-1.2993,-1.3001,-1.3002,-1.3007,-1.3002,-1.2981,-1.298,-1.298,-1.2979,0,-1.3017,-1.2998,-1.3035,-1.3024,-1.3022,-1.3052,-1.3042,-1.3063,-1.305,-1.3077,-1.3082,-1.3063,-1.3082,-1.3062,-1.308,-1.307,-1.3119,-1.3106,-1.3119,-1.3116,-1.3156,-1.3153,-1.3291,-1.3308,-1.3176,-1.3177,-1.3178,0,-1.3081,-1.3108,-1.3099,-1.311,-1.311,-1.3128,-1.3137,-1.311,-1.3121,-1.3123,-1.3144,-1.3159,-1.3171,-1.3204,-1.3192,-1.3205,-1.3193,-1.324,-1.3195,-1.3202,-1.3194,-1.3194,-1.3196,-1.325,-1.3252,-1.3253,-1.3254,0,-1.3197,-1.3185,-1.3199,-1.3209,-1.322,-1.3227,-1.3232,-1.3243,-1.3215,-1.3229,-1.3247,-1.3256,-1.3274,-1.3291,-1.33,-1.3298,-1.3272,-1.3268,-1.3278,-1.3287,-1.3294,-1.3291,-1.3145,-1.3265,-1.3264,-1.3263,-1.3263,-1.3262,-1.3284,-1.3306,-1.3303,-1.3319,-1.3319,-1.3324,-1.3342,-1.3332,-1.3347,-1.3359,-1.3342,-1.3365,-1.3364,-1.3374,-1.3375,-1.3393,-1.3373,-1.3388,-1.3391,-1.3396,-1.3402,-1.329,-1.3395,-1.3394,-1.3394,-1.3394,-1.3393,0,-1.3398,-1.3394,-1.3409,-1.3415,-1.3428,-1.3401,-1.3404,-1.3417,-1.3437,-1.3438,-1.345,-1.3471,-1.3487,-1.3476,-1.3489,-1.3506,-1.3494,-1.351,-1.3509,-1.3509,-1.3419,-1.3409,-1.3519,-1.3519,-1.3519,-1.3519,-1.3519,-1.3519,-1.3459,-1.3495,-1.3483,-1.3518,-1.3513,-1.3535,-1.354,-1.3544,-1.3544,-1.3569,-1.3582,-1.3574,-1.357,-1.3582,-1.3595,-1.3592,-1.3599,-1.3619,-1.3612,-1.3528,-1.3515,-1.3504,-1.3494,-1.3621,-1.3621,-1.37,-1.3701,-1.3702]},{"header":{"parameterUnit":"m.s-1","parameterCategory":1,"la1":30.2991,"la2":30.254,"lo1":-89.0895,"lo2":-89.0444,"dy":0.0017,"dx":0.0017,"nx":28,"ny":28,"refTime":"2025-09-01T21:00:00:Z","depth":0,"parameterNumber":3,"parameterNumberName":"V-component_of_WINDS"},"data":[0,0,0,0,0,0,0,0,0,0,0,0,0,0,0,0,0,0,0,0,0,0,0,0,0,0,0,0,0,0,0,0,0,0,0,0,0,0,0,0,0,0,0,0,0,0,0,0,0,0,0,0,0,0,0,0,0,0,2.0719,2.0719,0,2.0698,2.0698,2.0698,2.0651,2.0651,2.065,2.0649,2.0627,2.0627,2.0627,0,0,0,0,0,0,0,0,0,0,0,0,0,2.0719,2.072,2.072,2.0719,2.0719,2.0698,2.0698,2.0698,2.0652,2.065,2.0649,2.0648,2.0627,2.0627,2.0627,0,0,0,0,0,0,0,0,0,0,0,0,0,2.0711,2.072,2.072,2.0694,2.0691,2.0698,2.0698,2.0698,2.0652,2.065,2.0649,2.0648,2.0626,2.0627,2.0627,2.0658,0,0,2.0629,2.0629,0,0,0,0,0,0,0,0,2.0712,2.0711,2.0698,2.0695,2.0692,2.0676,2.069,2.0684,2.0652,2.0667,2.0649,2.0647,2.0644,2.0643,2.0642,2.0657,2.0656,2.0629,2.0629,2.0629,2.0629,0,0,0,0,0,0,0,2.0712,2.0712,2.0711,2.0697,2.0694,2.0683,2.068,2.0689,2.0664,2.0665,2.0662,2.066,2.0643,2.0642,2.0641,2.0656,2.0629,2.0629,2.0629,2.0629,2.0693,2.0694,0,0,0,0,0,0,2.0717,2.0712,2.0712,2.071,2.0699,2.0684,2.0681,2.0683,2.0663,2.0659,2.0661,2.0658,2.0642,2.0641,2.064,2.0673,2.0629,2.0629,2.063,2.0692,2.0693,2.0695,0,0,0,0,0,0,2.0717,2.0717,2.0713,2.071,2.0709,2.0685,2.0688,2.0683,2.0682,2.066,2.0656,2.0665,2.0641,2.064,2.0654,2.0672,2.063,2.063,2.069,2.0692,2.0694,2.0741,0,0,0,0,0,0,2.0717,2.0717,2.0729,2.0711,2.0709,2.0727,2.0689,2.0684,2.0683,2.0679,2.0663,2.0659,2.064,2.0653,2.0654,2.0672,2.063,2.0688,2.0691,2.0693,2.0738,2.0745,2.0751,0,0,0,0,0,2.0717,2.0744,2.073,2.073,2.0724,2.0728,2.0727,2.0704,2.0685,2.0696,2.0682,2.0659,2.067,2.0655,2.0656,2.0674,2.0687,2.069,2.0693,2.0735,2.0743,2.075,0,0,0,0,0,0,2.0764,2.0741,2.0725,2.0747,2.074,2.072,2.0734,2.0714,2.0712,2.0708,2.068,2.0677,2.0694,2.0686,2.0669,2.0702,2.0675,2.0678,2.0706,2.0714,2.0721,2.0721,2.0631,0,0,0,0,0,2.0777,2.0783,2.0762,2.0783,2.078,2.0758,2.0759,2.0742,2.0733,2.073,2.0717,2.0709,2.0711,2.0712,2.0713,2.0737,2.0732,2.075,2.0756,2.0761,2.0764,2.0775,2.0782,2.0705,2.0705,2.0705,0,0,2.0804,2.0792,2.0797,2.0792,2.0785,2.079,2.0755,2.0764,2.0767,2.0731,2.0743,2.0733,2.0723,2.0741,2.0749,2.0735,2.0784,2.0766,2.077,2.077,2.0779,2.0786,2.0792,2.0708,2.0707,2.0707,0,0,2.0855,2.0848,2.0863,2.0856,2.0845,2.083,2.0834,2.0817,2.0809,2.082,2.0793,2.0797,2.0801,2.0794,2.0791,2.0839,2.0817,2.084,2.0872,2.0883,2.0889,2.0894,2.0909,2.0915,2.0843,2.0843,2.0843,0,2.089,2.0898,2.0874,2.0883,2.0881,2.0849,2.0864,2.0858,2.0848,2.0847,2.0832,2.0835,2.0825,2.0841,2.0853,2.0852,2.0855,2.0841,2.089,2.0895,2.0899,2.0914,2.092,2.0846,2.0846,2.0845,2.0845,0,2.094,2.0946,2.096,2.095,2.095,2.0962,2.0939,2.0942,2.0925,2.0911,2.0923,2.0911,2.0907,2.091,2.0894,2.0923,2.0915,2.0895,2.0867,2.091,2.0923,2.0928,2.085,2.0849,2.0848,2.0847,0,0,2.102,2.0996,2.1001,2.0996,2.0981,2.0985,2.0996,2.0992,2.0994,2.0988,2.0995,2.0999,2.098,2.0977,2.096,2.097,2.1006,2.0949,2.0948,2.0958,2.1035,2.1049,2.1055,2.0992,2.0993,2.0994,2.1035,0,2.1066,2.1082,2.1061,2.1082,2.1086,2.1055,2.1064,2.1056,2.1043,2.1044,2.1031,2.1033,2.1009,2.1007,2.1015,2.1,2.1021,2.0997,2.0997,2.0998,2.0999,2.1062,2.1077,2.1117,2.1041,2.1041,2.1042,0,2.1122,2.1118,2.1139,2.1122,2.1123,2.1132,2.1126,2.1128,2.1118,2.1108,2.1104,2.1083,2.1091,2.1065,2.1075,2.106,2.1059,2.1051,2.1052,2.105,2.1021,2.106,2.1129,2.1134,2.105,2.1049,2.1049,0,2.1176,2.1176,2.1188,2.1185,2.1166,2.1172,2.1164,2.1152,2.1151,2.1146,2.1145,2.1141,2.1139,2.1136,2.1115,2.1098,2.1127,2.11,2.1118,2.1118,2.1124,2.1124,2.1192,2.1127,2.1127,2.1126,2.1126,0,2.1229,2.1243,2.1212,2.1219,2.1233,2.1209,2.1223,2.1212,2.1202,2.1206,2.118,2.1184,2.1156,2.1158,2.1141,2.1151,2.1151,2.1142,2.1137,2.1143,2.1144,2.1141,2.1137,2.1128,2.1128,2.1127,2.1127,0,2.1291,2.1271,2.1282,2.1262,2.1258,2.1269,2.1252,2.1258,2.1243,2.1249,2.1249,2.1226,2.1226,2.1205,2.1201,2.1189,2.1205,2.1197,2.1209,2.1205,2.1224,2.1222,2.1291,2.1298,2.123,2.1231,2.1231,0,2.1325,2.1334,2.1316,2.1317,2.131,2.1312,2.1311,2.1286,2.1286,2.1274,2.1281,2.1279,2.1275,2.1276,2.1259,2.1255,2.1245,2.1269,2.1244,2.1249,2.1243,2.1242,2.1242,2.1274,2.1275,2.1276,2.1276,0,2.1387,2.1377,2.1375,2.1371,2.137,2.1365,2.1358,2.136,2.1334,2.1334,2.1334,2.1331,2.1326,2.1324,2.1317,2.1308,2.1287,2.1285,2.1288,2.1294,2.13,2.1295,2.1221,2.1283,2.1282,2.1282,2.1281,2.1281,2.1435,2.1441,2.1429,2.1428,2.1421,2.1415,2.1419,2.1405,2.1404,2.1398,2.1384,2.1385,2.1373,2.1362,2.1355,2.1355,2.1342,2.1348,2.1349,2.135,2.1353,2.1301,2.1354,2.1353,2.1353,2.1353,2.1353,0,2.1494,2.1484,2.1484,2.1475,2.1475,2.1456,2.1447,2.1448,2.1449,2.144,2.1437,2.1436,2.1433,2.1416,2.1411,2.1414,2.1404,2.1413,2.1412,2.141,2.1366,2.1362,2.1421,2.1421,2.1421,2.1421,2.1421,2.1421,2.1524,2.1534,2.1522,2.1527,2.1517,2.1518,2.1515,2.1509,2.1501,2.1501,2.1499,2.1487,2.1474,2.1468,2.1465,2.1459,2.1458,2.147,2.1461,2.142,2.1413,2.1407,2.1403,2.147,2.147,2.1505,2.1506,2.1506]}]]